Total_Precipitation_Accumulation
0.29 0.24 0.32 0.38 0.36 0.38 0.50 0.49 0.38 0.22 0.17 0.19 0.18 0.18 0.18 0.16 0.13 0.10 0.10 0.08 0.08 0.10 0.13 0.14 0.14 0.14 0.17 0.24 0.31 0.50 0.72 0.90 0.92 0.88 0.94 0.99 0.99 1.06 1.13 1.18 1.26 1.39 1.50 1.63
0.24 0.15 0.20 0.26 0.22 0.24 0.27 0.28 0.25 0.19 0.21 0.18 0.17 0.15 0.16 0.16 0.15 0.13 0.12 0.11 0.08 0.09 0.12 0.14 0.14 0.14 0.17 0.20 0.26 0.39 0.57 0.76 0.88 0.87 0.91 0.99 0.98 1.04 1.11 1.18 1.24 1.37 1.42 1.44
0.40 0.17 0.35 0.48 0.29 0.26 0.24 0.23 0.24 0.26 0.26 0.20 0.18 0.17 0.17 0.16 0.16 0.17 0.16 0.14 0.12 0.11 0.13 0.14 0.14 0.15 0.18 0.19 0.21 0.30 0.45 0.63 0.78 0.80 0.81 0.86 0.90 0.98 1.08 1.17 1.17 1.22 1.26 1.25
0.67 0.49 0.80 0.49 0.20 0.22 0.27 0.29 0.27 0.26 0.23 0.21 0.20 0.20 0.18 0.16 0.17 0.19 0.18 0.16 0.15 0.15 0.15 0.14 0.13 0.14 0.16 0.18 0.20 0.25 0.36 0.52 0.70 0.76 0.74 0.75 0.80 0.85 0.94 1.06 1.12 1.10 1.10 1.09
1.01 0.74 0.47 0.23 0.14 0.22 0.32 0.36 0.27 0.21 0.16 0.17 0.17 0.17 0.17 0.15 0.12 0.13 0.15 0.15 0.15 0.17 0.18 0.17 0.15 0.15 0.17 0.19 0.20 0.24 0.36 0.48 0.61 0.72 0.72 0.69 0.74 0.78 0.82 0.89 0.99 0.98 0.97 1.02
1.21 0.89 0.49 0.27 0.11 0.14 0.28 0.43 0.23 0.16 0.14 0.15 0.19 0.24 0.19 0.13 0.08 0.06 0.08 0.10 0.12 0.13 0.15 0.17 0.17 0.17 0.19 0.23 0.24 0.26 0.39 0.50 0.55 0.64 0.67 0.64 0.69 0.76 0.78 0.80 0.85 0.88 0.84 0.89
1.02 0.81 0.36 0.18 0.11 0.16 0.41 0.48 0.21 0.14 0.13 0.14 0.21 0.24 0.16 0.09 0.08 0.06 0.06 0.08 0.09 0.11 0.13 0.16 0.18 0.19 0.20 0.23 0.27 0.29 0.38 0.45 0.51 0.57 0.60 0.59 0.67 0.70 0.75 0.78 0.79 0.80 0.77 0.80
0.80 0.88 0.45 0.16 0.16 0.35 0.44 0.20 0.13 0.11 0.10 0.11 0.12 0.11 0.09 0.08 0.08 0.08 0.07 0.06 0.07 0.10 0.12 0.13 0.16 0.17 0.19 0.24 0.29 0.32 0.35 0.39 0.47 0.54 0.56 0.57 0.68 0.67 0.68 0.75 0.78 0.78 0.78 0.81
0.63 0.52 0.29 0.21 0.25 0.26 0.20 0.15 0.11 0.09 0.08 0.09 0.10 0.10 0.09 0.10 0.09 0.09 0.07 0.06 0.06 0.08 0.10 0.12 0.14 0.16 0.18 0.22 0.29 0.37 0.36 0.37 0.44 0.52 0.59 0.61 0.67 0.69 0.70 0.71 0.75 0.79 0.79 0.77
0.39 0.27 0.21 0.20 0.18 0.14 0.10 0.10 0.09 0.09 0.09 0.10 0.10 0.09 0.10 0.10 0.10 0.11 0.10 0.07 0.06 0.08 0.11 0.13 0.16 0.17 0.19 0.22 0.29 0.38 0.38 0.38 0.43 0.49 0.58 0.60 0.65 0.67 0.70 0.73 0.82 0.87 0.83 0.78
0.33 0.22 0.17 0.14 0.13 0.13 0.11 0.08 0.07 0.07 0.07 0.08 0.09 0.09 0.09 0.10 0.11 0.12 0.11 0.08 0.07 0.07 0.11 0.14 0.18 0.19 0.18 0.22 0.29 0.37 0.40 0.40 0.42 0.46 0.59 0.62 0.64 0.67 0.70 0.69 0.88 1.03 0.93 0.91
0.30 0.20 0.22 0.17 0.12 0.12 0.13 0.11 0.09 0.09 0.08 0.07 0.08 0.09 0.10 0.12 0.12 0.11 0.10 0.09 0.08 0.08 0.09 0.14 0.19 0.21 0.20 0.23 0.29 0.36 0.42 0.44 0.45 0.48 0.59 0.62 0.65 0.69 0.73 0.73 0.77 0.79 0.84 0.92
0.19 0.12 0.13 0.14 0.12 0.10 0.12 0.12 0.13 0.13 0.12 0.11 0.10 0.09 0.11 0.12 0.11 0.11 0.09 0.08 0.08 0.10 0.11 0.15 0.19 0.22 0.24 0.25 0.28 0.36 0.45 0.48 0.49 0.49 0.58 0.62 0.58 0.63 0.66 0.67 0.71 0.74 0.75 0.80
0.14 0.13 0.14 0.13 0.13 0.11 0.11 0.12 0.13 0.13 0.12 0.12 0.12 0.12 0.12 0.12 0.12 0.10 0.09 0.09 0.09 0.09 0.11 0.15 0.18 0.22 0.27 0.28 0.27 0.34 0.43 0.48 0.51 0.53 0.58 0.61 0.57 0.57 0.58 0.64 0.69 0.72 0.76 0.81
0.12 0.13 0.14 0.12 0.11 0.10 0.09 0.09 0.11 0.11 0.10 0.10 0.10 0.10 0.11 0.12 0.11 0.09 0.08 0.09 0.08 0.08 0.10 0.12 0.15 0.20 0.25 0.27 0.28 0.34 0.45 0.52 0.53 0.57 0.60 0.61 0.59 0.59 0.57 0.59 0.63 0.67 0.75 0.90
0.12 0.09 0.09 0.10 0.10 0.11 0.11 0.11 0.12 0.13 0.13 0.12 0.12 0.13 0.13 0.12 0.09 0.08 0.08 0.08 0.09 0.10 0.10 0.12 0.15 0.20 0.25 0.26 0.27 0.33 0.43 0.59 0.64 0.65 0.65 0.64 0.63 0.62 0.61 0.61 0.63 0.67 0.76 0.89
0.16 0.12 0.11 0.11 0.11 0.12 0.14 0.14 0.14 0.16 0.16 0.16 0.17 0.17 0.15 0.12 0.10 0.09 0.09 0.09 0.11 0.12 0.13 0.15 0.17 0.21 0.25 0.27 0.30 0.36 0.46 0.57 0.67 0.69 0.69 0.70 0.69 0.66 0.65 0.67 0.68 0.69 0.74 0.88
0.18 0.16 0.15 0.17 0.17 0.16 0.15 0.15 0.15 0.16 0.18 0.18 0.18 0.18 0.17 0.15 0.14 0.13 0.12 0.11 0.12 0.12 0.14 0.18 0.22 0.24 0.26 0.28 0.35 0.41 0.52 0.61 0.69 0.77 0.79 0.80 0.79 0.73 0.72 0.72 0.70 0.72 0.74 0.84
0.16 0.16 0.16 0.16 0.16 0.17 0.18 0.19 0.18 0.16 0.16 0.15 0.15 0.16 0.17 0.17 0.16 0.15 0.13 0.13 0.14 0.17 0.19 0.22 0.27 0.25 0.27 0.34 0.45 0.50 0.58 0.67 0.75 0.81 0.83 0.89 0.86 0.79 0.77 0.75 0.75 0.77 0.80 0.86
0.18 0.18 0.18 0.17 0.15 0.17 0.18 0.19 0.19 0.16 0.15 0.15 0.16 0.16 0.17 0.17 0.17 0.18 0.18 0.18 0.21 0.26 0.28 0.30 0.29 0.30 0.37 0.45 0.57 0.60 0.64 0.74 0.82 0.87 0.89 0.90 0.91 0.90 0.87 0.84 0.83 0.84 0.86 0.89
0.21 0.19 0.18 0.17 0.16 0.16 0.17 0.19 0.21 0.19 0.16 0.17 0.20 0.20 0.20 0.20 0.20 0.21 0.22 0.25 0.26 0.29 0.32 0.34 0.34 0.42 0.54 0.62 0.62 0.61 0.68 0.79 0.86 0.89 0.92 0.95 0.96 0.95 0.93 0.91 0.88 0.89 0.90 0.89
0.26 0.24 0.22 0.21 0.21 0.22 0.22 0.22 0.24 0.24 0.22 0.21 0.22 0.23 0.24 0.24 0.23 0.23 0.27 0.34 0.37 0.38 0.37 0.37 0.42 0.53 0.64 0.67 0.62 0.65 0.73 0.84 0.90 0.91 0.94 0.96 1.01 1.04 0.99 0.97 0.95 0.92 0.92 0.91
0.33 0.32 0.31 0.31 0.32 0.32 0.30 0.30 0.32 0.31 0.31 0.31 0.31 0.31 0.32 0.32 0.29 0.30 0.36 0.39 0.40 0.42 0.43 0.47 0.54 0.60 0.64 0.65 0.66 0.70 0.81 0.93 0.99 0.99 0.99 0.99 1.03 1.09 1.09 1.05 0.99 0.96 0.99 0.97
0.41 0.40 0.40 0.42 0.41 0.38 0.39 0.41 0.41 0.41 0.41 0.42 0.42 0.41 0.40 0.38 0.36 0.39 0.45 0.47 0.46 0.46 0.50 0.55 0.57 0.59 0.63 0.64 0.70 0.80 0.92 1.02 1.06 1.07 1.06 1.05 1.07 1.11 1.12 1.09 1.03 0.97 0.96 0.95
0.48 0.47 0.46 0.47 0.50 0.53 0.52 0.49 0.46 0.45 0.44 0.45 0.46 0.45 0.45 0.45 0.48 0.51 0.51 0.50 0.50 0.50 0.52 0.54 0.55 0.57 0.60 0.66 0.76 0.90 1.01 1.08 1.16 1.18 1.16 1.14 1.12 1.13 1.12 1.08 1.02 0.95 0.92 0.90
0.52 0.52 0.54 0.57 0.61 0.62 0.58 0.53 0.51 0.49 0.46 0.44 0.45 0.46 0.47 0.48 0.51 0.52 0.53 0.52 0.52 0.54 0.55 0.55 0.56 0.60 0.67 0.74 0.82 0.94 1.02 1.09 1.18 1.20 1.15 1.13 1.11 1.12 1.13 1.08 0.98 0.91 0.85 0.84
0.54 0.54 0.53 0.53 0.57 0.58 0.58 0.56 0.55 0.54 0.50 0.47 0.46 0.47 0.47 0.48 0.50 0.51 0.51 0.51 0.52 0.53 0.56 0.58 0.61 0.67 0.73 0.80 0.88 0.96 1.03 1.09 1.19 1.25 1.20 1.16 1.15 1.15 1.13 1.04 0.93 0.85 0.80 0.80